QPF
0.00 0.00 0.00 0.00 0.00 0.00 0.00 0.00 0.00 0.00 0.00 0.00 0.00 0.00 0.00 0.00 0.00 0.00 0.00 0.00 0.00 0.00 0.00 0.00 0.00 0.00 0.00 0.00 0.00 0.00 0.00 0.00 0.00 0.00 0.00 0.00 0.00 0.00 0.00 0.00 0.00 0.00 0.00 0.00
0.00 0.00 0.00 0.00 0.00 0.00 0.00 0.00 0.00 0.00 0.00 0.00 0.00 0.00 0.00 0.00 0.00 0.00 0.00 0.00 0.00 0.00 0.00 0.00 0.00 0.00 0.00 0.00 0.00 0.00 0.00 0.00 0.00 0.00 0.00 0.00 0.00 0.00 0.00 0.00 0.00 0.00 0.00 0.00
0.00 0.00 0.00 0.00 0.00 0.00 0.00 0.00 0.00 0.00 0.00 0.00 0.00 0.00 0.00 0.00 0.00 0.00 0.00 0.00 0.00 0.00 0.00 0.00 0.00 0.00 0.00 0.00 0.00 0.00 0.00 0.00 0.00 0.00 0.00 0.00 0.00 0.00 0.00 0.00 0.00 0.00 0.00 0.00
0.00 0.00 0.00 0.00 0.00 0.00 0.00 0.00 0.00 0.00 0.00 0.00 0.00 0.00 0.00 0.00 0.00 0.00 0.00 0.00 0.00 0.00 0.00 0.00 0.00 0.00 0.00 0.00 0.00 0.00 0.00 0.00 0.00 0.00 0.00 0.00 0.00 0.00 0.00 0.00 0.00 0.00 0.00 0.00
0.00 0.00 0.00 0.00 0.00 0.00 0.00 0.00 0.00 0.00 0.00 0.00 0.00 0.00 0.00 0.00 0.00 0.00 0.00 0.00 0.00 0.00 0.00 0.00 0.00 0.00 0.00 0.00 0.00 0.00 0.00 0.00 0.00 0.00 0.00 0.00 0.00 0.00 0.00 0.00 0.00 0.00 0.00 0.00
0.00 0.00 0.00 0.00 0.00 0.00 0.00 0.00 0.00 0.00 0.00 0.00 0.00 0.00 0.00 0.00 0.00 0.00 0.00 0.00 0.00 0.00 0.00 0.00 0.00 0.00 0.00 0.00 0.00 0.00 0.00 0.00 0.00 0.00 0.00 0.00 0.00 0.00 0.00 0.00 0.00 0.00 0.00 0.00
0.01 0.00 0.00 0.00 0.00 0.00 0.00 0.00 0.01 0.01 0.01 0.00 0.00 0.00 0.00 0.00 0.00 0.00 0.00 0.00 0.00 0.00 0.00 0.00 0.00 0.00 0.00 0.00 0.00 0.00 0.00 0.00 0.00 0.00 0.00 0.00 0.00 0.00 0.00 0.00 0.00 0.00 0.00 0.00
0.02 0.01 0.00 0.00 0.00 0.00 0.00 0.00 0.00 0.00 0.00 0.00 0.00 0.00 0.00 0.00 0.00 0.00 0.00 0.00 0.00 0.00 0.00 0.00 0.00 0.00 0.00 0.00 0.00 0.00 0.00 0.00 0.00 0.00 0.00 0.00 0.00 0.00 0.00 0.00 0.00 0.00 0.00 0.00
0.00 0.00 0.00 0.00 0.00 0.00 0.00 0.00 0.00 0.00 0.00 0.00 0.00 0.00 0.00 0.00 0.00 0.00 0.00 0.00 0.00 0.00 0.00 0.00 0.00 0.00 0.00 0.00 0.00 0.00 0.00 0.00 0.00 0.00 0.00 0.00 0.00 0.00 0.00 0.00 0.00 0.00 0.00 0.00
0.00 0.00 0.00 0.00 0.00 0.00 0.00 0.00 0.00 0.00 0.00 0.00 0.00 0.00 0.00 0.00 0.00 0.00 0.00 0.00 0.00 0.00 0.00 0.00 0.00 0.00 0.00 0.00 0.00 0.00 0.00 0.00 0.00 0.00 0.00 0.00 0.00 0.00 0.00 0.00 0.00 0.00 0.00 0.00
0.00 0.00 0.00 0.00 0.00 0.00 0.00 0.00 0.00 0.00 0.00 0.00 0.00 0.00 0.00 0.00 0.00 0.00 0.00 0.00 0.00 0.00 0.00 0.00 0.00 0.00 0.00 0.00 0.00 0.00 0.00 0.00 0.00 0.00 0.00 0.00 0.00 0.00 0.00 0.00 0.00 0.00 0.00 0.00
0.00 0.00 0.00 0.00 0.00 0.00 0.00 0.00 0.00 0.00 0.00 0.00 0.00 0.00 0.00 0.00 0.00 0.00 0.00 0.00 0.00 0.00 0.00 0.00 0.00 0.00 0.00 0.00 0.00 0.00 0.00 0.00 0.00 0.00 0.00 0.00 0.00 0.00 0.00 0.00 0.00 0.00 0.00 0.00
0.00 0.00 0.00 0.00 0.01 0.00 0.00 0.00 0.00 0.00 0.00 0.00 0.00 0.00 0.00 0.00 0.00 0.00 0.00 0.00 0.00 0.00 0.00 0.00 0.00 0.00 0.00 0.00 0.00 0.00 0.00 0.00 0.00 0.00 0.00 0.00 0.00 0.00 0.00 0.00 0.00 0.00 0.00 0.00
0.01 0.00 0.00 0.00 0.00 0.00 0.00 0.00 0.00 0.00 0.00 0.00 0.00 0.00 0.00 0.00 0.00 0.00 0.00 0.00 0.00 0.00 0.00 0.00 0.00 0.00 0.00 0.00 0.00 0.00 0.00 0.00 0.00 0.00 0.00 0.00 0.00 0.00 0.00 0.00 0.00 0.00 0.00 0.00
0.10 0.02 0.00 0.00 0.00 0.00 0.00 0.00 0.00 0.00 0.00 0.00 0.00 0.00 0.00 0.00 0.00 0.00 0.00 0.00 0.00 0.00 0.00 0.00 0.00 0.00 0.00 0.00 0.00 0.00 0.00 0.00 0.00 0.00 0.00 0.00 0.00 0.00 0.00 0.00 0.00 0.00 0.00 0.00
0.09 0.03 0.00 0.00 0.00 0.00 0.00 0.00 0.00 0.00 0.00 0.00 0.00 0.00 0.00 0.00 0.00 0.00 0.00 0.00 0.00 0.00 0.00 0.00 0.00 0.00 0.00 0.00 0.00 0.00 0.00 0.00 0.00 0.00 0.00 0.00 0.00 0.00 0.00 0.00 0.00 0.00 0.00 0.00
0.04 0.04 0.01 0.00 0.00 0.00 0.00 0.00 0.00 0.00 0.00 0.00 0.00 0.00 0.00 0.00 0.00 0.00 0.00 0.00 0.00 0.00 0.00 0.00 0.00 0.00 0.00 0.00 0.00 0.00 0.00 0.00 0.00 0.00 0.00 0.00 0.00 0.00 0.00 0.00 0.00 0.00 0.00 0.00
0.01 0.02 0.01 0.00 0.00 0.02 0.00 0.00 0.00 0.00 0.00 0.00 0.00 0.00 0.00 0.00 0.00 0.00 0.00 0.00 0.00 0.00 0.00 0.00 0.00 0.00 0.00 0.00 0.00 0.00 0.00 0.00 0.00 0.00 0.00 0.00 0.00 0.00 0.00 0.00 0.00 0.00 0.00 0.00
0.00 0.00 0.00 0.00 0.00 0.00 0.00 0.00 0.00 0.00 0.00 0.00 0.00 0.00 0.00 0.00 0.00 0.00 0.00 0.00 0.00 0.00 0.00 0.00 0.00 0.00 0.00 0.00 0.00 0.00 0.00 0.00 0.00 0.00 0.00 0.00 0.00 0.00 0.00 0.00 0.00 0.00 0.00 0.00
0.00 0.00 0.00 0.00 0.00 0.00 0.00 0.00 0.00 0.00 0.00 0.00 0.00 0.00 0.00 0.00 0.00 0.00 0.00 0.00 0.00 0.00 0.00 0.00 0.00 0.00 0.00 0.00 0.00 0.00 0.00 0.00 0.00 0.00 0.00 0.00 0.00 0.00 0.00 0.00 0.00 0.00 0.00 0.00
0.00 0.00 0.00 0.00 0.00 0.00 0.00 0.00 0.00 0.00 0.00 0.00 0.00 0.00 0.00 0.00 0.00 0.00 0.00 0.00 0.00 0.00 0.00 0.00 0.00 0.00 0.00 0.00 0.00 0.00 0.00 0.00 0.00 0.00 0.00 0.00 0.00 0.00 0.00 0.00 0.00 0.00 0.00 0.00
0.00 0.01 0.00 0.00 0.00 0.00 0.00 0.00 0.00 0.00 0.00 0.00 0.00 0.00 0.00 0.00 0.00 0.00 0.00 0.00 0.00 0.00 0.00 0.00 0.00 0.00 0.00 0.00 0.00 0.00 0.00 0.00 0.00 0.00 0.00 0.00 0.00 0.00 0.00 0.00 0.00 0.00 0.00 0.00
0.00 0.00 0.00 0.00 0.00 0.00 0.00 0.00 0.00 0.00 0.00 0.00 0.00 0.00 0.00 0.00 0.00 0.00 0.00 0.00 0.00 0.00 0.00 0.00 0.00 0.00 0.00 0.00 0.00 0.00 0.00 0.00 0.00 0.00 0.00 0.00 0.00 0.00 0.00 0.00 0.00 0.00 0.00 0.00
0.00 0.00 0.00 0.00 0.00 0.00 0.00 0.00 0.00 0.00 0.00 0.00 0.00 0.00 0.00 0.00 0.00 0.00 0.00 0.00 0.00 0.00 0.00 0.00 0.00 0.00 0.00 0.00 0.00 0.00 0.00 0.00 0.00 0.00 0.00 0.00 0.00 0.00 0.00 0.00 0.00 0.00 0.00 0.00
0.00 0.00 0.00 0.00 0.00 0.00 0.00 0.00 0.00 0.00 0.00 0.00 0.00 0.00 0.00 0.00 0.00 0.00 0.00 0.00 0.00 0.00 0.00 0.00 0.00 0.00 0.00 0.00 0.00 0.00 0.00 0.00 0.00 0.00 0.00 0.00 0.00 0.00 0.00 0.00 0.00 0.00 0.00 0.00
0.00 0.00 0.00 0.00 0.00 0.00 0.00 0.00 0.00 0.00 0.00 0.00 0.00 0.00 0.00 0.00 0.00 0.00 0.00 0.00 0.00 0.00 0.00 0.00 0.00 0.00 0.00 0.00 0.00 0.00 0.00 0.00 0.00 0.00 0.00 0.00 0.00 0.00 0.00 0.00 0.00 0.00 0.00 0.00
MSLP
1019.87 1020.56 1020.02 1019.84 1019.76 1019.86 1019.88 1019.85 1019.61 1019.05 1018.58 1018.81 1018.46 1018.23 1018.21 1017.85 1018.07 1018.16 1018.24 1018.13 1018.10 1018.03 1017.02 1017.99 1018.11 1018.44 1018.77 1018.91 1019.20 1019.40 1019.97 1020.32 1020.88 1021.59 1022.24 1022.68 1022.77 1022.98 1023.03 1023.00 1023.12 1023.43 1023.64 1023.84
1020.16 1019.00 1018.77 1019.69 1019.81 1020.17 1020.24 1020.23 1020.04 1019.66 1019.06 1019.29 1018.88 1018.20 1017.98 1017.76 1017.48 1016.94 1017.15 1017.40 1017.22 1017.00 1017.16 1017.14 1017.38 1017.81 1017.95 1018.20 1018.44 1018.81 1019.17 1019.74 1020.13 1020.72 1021.26 1021.67 1022.08 1022.33 1022.37 1022.58 1022.86 1023.08 1023.34 1023.60
1018.48 1018.46 1018.90 1019.57 1019.84 1020.26 1020.26 1020.19 1020.39 1020.15 1019.54 1019.38 1019.44 1018.25 1017.57 1016.97 1016.40 1016.04 1015.88 1015.86 1015.91 1016.00 1016.13 1016.25 1016.61 1016.84 1017.24 1017.47 1017.50 1017.96 1018.29 1018.87 1019.50 1020.10 1020.81 1021.50 1021.86 1022.16 1022.31 1022.34 1022.41 1022.47 1022.78 1023.06
1018.44 1018.30 1018.32 1018.96 1019.07 1019.73 1020.05 1020.13 1020.48 1020.44 1020.35 1019.92 1019.43 1017.87 1016.68 1016.32 1015.87 1015.46 1014.87 1014.99 1014.92 1015.03 1014.96 1014.94 1015.48 1016.03 1016.16 1016.02 1016.71 1017.14 1017.66 1018.23 1018.63 1019.09 1019.89 1020.36 1020.81 1021.05 1021.02 1021.30 1021.53 1021.77 1021.98 1022.20
1017.23 1017.66 1018.09 1018.48 1017.78 1019.57 1019.66 1020.01 1020.59 1020.70 1020.84 1020.55 1019.81 1019.42 1016.10 1015.99 1015.68 1015.10 1013.92 1013.80 1013.77 1013.76 1013.97 1014.19 1014.42 1014.45 1014.75 1015.32 1015.68 1016.07 1016.85 1017.50 1017.91 1018.38 1018.78 1019.35 1019.78 1019.94 1020.22 1020.68 1020.88 1021.02 1021.18 1021.34
1017.28 1017.33 1017.91 1017.57 1018.21 1018.88 1019.52 1020.44 1020.83 1021.13 1021.49 1020.60 1019.50 1019.44 1015.66 1015.47 1014.79 1014.24 1013.51 1013.11 1012.72 1012.94 1013.08 1013.22 1013.21 1013.75 1014.06 1014.51 1015.07 1015.45 1016.09 1016.44 1017.20 1017.57 1017.94 1018.30 1018.58 1019.00 1019.62 1020.01 1020.37 1020.58 1020.76 1020.97
1016.98 1017.13 1017.08 1017.23 1018.27 1018.94 1019.52 1020.21 1020.73 1021.49 1021.38 1019.18 1018.57 1019.16 1014.80 1014.08 1013.39 1013.14 1012.75 1012.43 1012.13 1012.20 1012.56 1012.68 1012.92 1013.32 1013.66 1014.12 1014.31 1014.85 1015.35 1015.73 1016.14 1016.62 1017.15 1017.44 1017.75 1018.42 1018.73 1019.19 1019.65 1020.08 1020.23 1020.36
1016.64 1017.15 1016.09 1016.00 1016.16 1016.65 1017.83 1018.69 1019.17 1020.04 1020.64 1019.48 1019.40 1017.32 1013.41 1012.61 1012.06 1011.70 1011.86 1012.01 1012.04 1012.09 1011.98 1012.09 1012.14 1012.41 1012.91 1013.23 1013.60 1014.26 1014.72 1014.93 1015.46 1015.86 1016.22 1016.73 1017.30 1017.61 1017.88 1018.25 1018.70 1018.98 1019.28 1019.49
1015.25 1015.23 1015.06 1015.23 1015.89 1016.34 1017.46 1017.42 1017.60 1019.45 1020.72 1020.29 1018.32 1015.74 1013.66 1012.42 1012.03 1011.49 1011.11 1011.61 1011.64 1011.85 1011.81 1011.73 1011.91 1011.95 1012.25 1012.77 1013.05 1013.35 1013.98 1014.38 1014.78 1014.99 1015.54 1016.04 1016.50 1016.91 1017.11 1017.52 1017.89 1018.07 1018.32 1018.60
1015.17 1015.33 1014.91 1015.48 1015.78 1015.92 1015.40 1016.06 1017.74 1018.65 1019.57 1019.48 1017.17 1015.72 1012.68 1011.60 1010.83 1010.32 1010.36 1010.59 1010.82 1011.46 1011.79 1011.71 1011.78 1011.81 1012.01 1012.32 1012.62 1013.03 1013.40 1013.74 1013.98 1014.41 1014.87 1015.30 1015.66 1016.00 1016.39 1016.89 1017.09 1017.26 1017.43 1017.77
1015.24 1015.28 1015.28 1015.28 1014.27 1013.53 1014.62 1014.89 1015.60 1016.24 1017.09 1016.96 1016.32 1013.34 1011.29 1010.62 1010.20 1009.72 1009.28 1009.57 1010.48 1011.09 1011.49 1011.72 1011.97 1011.98 1012.05 1012.18 1012.55 1012.80 1013.16 1013.46 1013.77 1014.02 1014.32 1014.75 1015.10 1015.44 1015.85 1016.07 1016.16 1016.46 1016.82 1017.01
1014.93 1015.61 1015.26 1014.14 1013.79 1013.59 1013.58 1013.97 1014.93 1015.22 1015.61 1015.58 1015.00 1011.11 1009.94 1009.64 1009.41 1009.29 1009.23 1009.55 1010.03 1010.60 1011.10 1011.78 1012.06 1012.08 1012.27 1012.44 1012.67 1012.83 1013.08 1013.38 1013.66 1013.86 1014.14 1014.25 1014.40 1014.64 1014.98 1015.23 1015.40 1015.67 1015.93 1016.17
1013.94 1014.61 1014.85 1014.53 1014.61 1013.88 1012.81 1012.18 1012.29 1013.18 1013.63 1013.64 1013.83 1009.86 1009.02 1009.18 1008.94 1008.95 1009.48 1009.66 1009.85 1010.73 1011.55 1012.00 1012.32 1012.31 1012.30 1012.54 1012.81 1013.01 1013.16 1013.38 1013.72 1013.96 1014.15 1014.42 1014.69 1014.86 1014.91 1014.99 1015.16 1015.39 1015.57 1015.80
1013.38 1013.65 1013.28 1012.33 1011.21 1012.02 1012.32 1011.67 1011.70 1012.51 1013.04 1011.05 1011.17 1008.88 1009.48 1009.17 1009.16 1009.32 1009.27 1009.53 1009.77 1010.34 1011.35 1011.90 1012.19 1012.34 1012.44 1012.61 1012.76 1013.05 1013.40 1013.68 1014.04 1014.36 1014.66 1014.90 1015.13 1015.28 1015.41 1015.48 1015.59 1015.80 1015.92 1016.02
1013.56 1012.58 1012.55 1011.52 1011.48 1011.31 1010.95 1010.81 1010.92 1010.93 1010.12 1011.23 1008.27 1009.22 1008.92 1008.75 1008.86 1008.88 1008.95 1009.73 1010.42 1010.72 1011.26 1011.52 1011.66 1012.05 1012.33 1012.61 1012.87 1013.26 1013.64 1013.88 1014.21 1014.60 1014.95 1015.16 1015.32 1015.46 1015.72 1015.94 1016.11 1016.32 1016.51 1016.64
1013.55 1011.92 1012.60 1011.74 1011.65 1011.19 1010.61 1010.51 1010.15 1009.81 1009.21 1009.87 1007.95 1007.68 1007.40 1008.22 1008.46 1008.96 1008.97 1009.63 1009.98 1010.30 1010.55 1010.81 1011.20 1011.62 1012.09 1012.34 1012.73 1013.25 1013.73 1014.11 1014.40 1014.86 1015.31 1015.63 1015.91 1016.19 1016.44 1016.75 1016.86 1016.85 1016.97 1017.13
1013.76 1013.19 1012.52 1010.90 1011.11 1011.17 1010.00 1008.60 1008.54 1007.44 1006.53 1006.99 1006.57 1004.42 1006.86 1007.57 1008.05 1008.12 1008.62 1009.04 1009.04 1009.12 1009.76 1010.38 1010.83 1011.37 1011.90 1012.19 1012.36 1013.00 1013.48 1013.99 1014.36 1014.88 1015.29 1015.64 1015.92 1016.31 1016.58 1016.71 1016.92 1017.21 1017.40 1017.40
1012.97 1013.75 1013.03 1011.37 1010.86 1009.18 1007.12 1007.26 1007.12 1006.82 1005.45 1006.09 1005.62 1004.36 1005.45 1006.14 1006.08 1006.76 1007.09 1007.48 1008.18 1008.65 1009.37 1009.91 1010.62 1011.40 1011.99 1012.45 1012.84 1013.33 1013.89 1014.34 1014.76 1015.18 1015.52 1015.79 1016.14 1016.46 1016.69 1017.02 1017.24 1017.32 1017.42 1017.53
1012.35 1012.45 1013.19 1012.42 1009.35 1007.98 1006.87 1005.90 1005.14 1005.01 1002.69 1004.42 1005.39 1004.08 1004.79 1005.72 1006.65 1006.23 1005.77 1006.21 1006.68 1007.72 1008.73 1009.37 1010.26 1011.18 1011.90 1012.32 1012.80 1013.34 1014.16 1014.66 1015.04 1015.39 1015.60 1015.95 1016.20 1016.51 1016.78 1017.02 1017.34 1017.36 1017.48 1017.49
1011.10 1011.47 1011.69 1011.66 1009.20 1005.72 1003.75 1001.63 1004.15 1005.64 1003.94 1003.37 1003.03 1002.03 1003.21 1005.32 1006.53 1002.93 1005.14 1006.12 1007.20 1007.80 1008.54 1009.72 1010.83 1011.58 1011.94 1012.56 1013.01 1013.64 1014.35 1014.60 1015.08 1015.62 1015.98 1016.10 1016.25 1016.54 1016.49 1016.80 1016.84 1016.92 1017.07 1017.33
1010.18 1010.23 1010.06 1009.17 1007.88 1004.73 1001.36 1001.64 1003.19 1005.07 1000.73 999.44 1000.96 1000.34 1001.31 1003.43 1002.31 1000.94 1003.76 1005.47 1006.50 1007.92 1009.14 1010.36 1011.32 1011.87 1012.31 1012.93 1013.39 1014.07 1014.62 1014.76 1015.06 1015.24 1016.05 1016.81 1016.76 1017.19 1017.21 1017.68 1017.74 1017.84 1018.11 1017.97
1006.97 1007.83 1007.67 1007.56 1006.03 1003.45 1000.30 1001.69 1000.84 996.40 999.64 998.34 998.60 998.23 1000.24 1000.76 1001.12 1003.43 1004.05 1005.59 1006.80 1008.13 1009.84 1010.47 1011.32 1011.98 1012.74 1013.55 1014.08 1014.44 1015.01 1015.22 1016.26 1015.92 1017.08 1017.34 1017.75 1017.76 1017.99 1018.06 1018.69 1019.09 1019.12 1019.06
1005.38 1004.04 1005.29 1006.34 1002.87 1001.26 999.33 998.38 998.13 998.38 999.17 998.92 999.01 998.89 999.59 1000.59 1001.59 1002.83 1004.35 1005.85 1007.15 1008.44 1009.72 1010.75 1011.62 1012.81 1013.56 1014.10 1014.62 1015.36 1015.40 1015.78 1016.33 1017.36 1017.78 1018.14 1018.24 1018.41 1018.29 1018.37 1019.05 1019.29 1019.53 1020.02
1004.04 1003.82 1004.72 1004.82 1001.55 1000.77 1000.48 999.52 998.68 998.88 998.94 998.86 998.86 998.83 999.38 1000.02 1001.33 1002.86 1004.01 1005.43 1007.29 1009.14 1010.44 1010.84 1011.80 1013.24 1014.48 1014.91 1015.44 1015.18 1015.56 1016.30 1016.60 1017.44 1017.97 1018.16 1018.46 1018.58 1018.63 1018.72 1019.09 1019.32 1019.63 1019.74
1005.57 1005.93 1005.19 1005.00 1003.67 1002.23 1001.22 1000.60 1000.13 999.49 999.53 999.60 999.92 999.80 999.99 1000.62 1001.92 1003.00 1004.43 1006.08 1007.68 1009.25 1010.42 1011.62 1012.51 1013.58 1014.72 1015.48 1015.88 1016.28 1016.55 1016.39 1016.68 1017.51 1017.63 1018.00 1018.30 1018.63 1018.79 1019.28 1019.28 1019.22 1019.31 1019.43
1008.40 1008.39 1007.83 1005.91 1007.03 1006.88 1003.05 1001.95 1001.24 1000.49 999.94 999.88 1000.36 1000.57 1000.88 1001.36 1002.23 1003.29 1005.10 1006.07 1007.65 1009.81 1011.20 1012.03 1013.58 1014.07 1014.86 1015.62 1016.26 1017.36 1016.80 1016.73 1016.92 1017.74 1018.07 1018.51 1018.56 1018.80 1019.05 1019.30 1019.40 1019.34 1019.60 1019.73
Thickness
5572 5575 5581 5596 5605 5609 5608 5613 5617 5630 5641 5639 5645 5652 5653 5665 5668 5674 5677 5679 5683 5688 5700 5696 5697 5696 5696 5695 5692 5692 5687 5686 5682 5676 5670 5667 5667 5667 5666 5666 5664 5660 5658 5657
5560 5580 5597 5590 5596 5599 5602 5604 5606 5617 5630 5627 5633 5646 5652 5656 5665 5681 5683 5681 5684 5691 5695 5697 5698 5696 5696 5697 5696 5693 5690 5687 5684 5680 5676 5673 5670 5668 5667 5665 5662 5659 5657 5654
5570 5583 5585 5580 5583 5586 5590 5594 5598 5605 5619 5620 5625 5634 5650 5660 5669 5681 5687 5695 5695 5697 5698 5700 5700 5699 5697 5696 5697 5695 5693 5690 5686 5681 5676 5671 5668 5666 5664 5662 5661 5660 5657 5654
5563 5575 5577 5575 5582 5586 5583 5592 5595 5595 5598 5596 5618 5609 5650 5657 5668 5676 5693 5694 5700 5698 5702 5706 5704 5702 5702 5702 5697 5696 5693 5689 5687 5685 5679 5676 5674 5671 5671 5669 5665 5662 5658 5656
5570 5571 5572 5570 5595 5579 5583 5586 5583 5586 5582 5588 5603 5600 5642 5654 5655 5671 5695 5700 5704 5706 5705 5706 5707 5710 5710 5705 5702 5700 5696 5692 5690 5687 5684 5679 5676 5676 5673 5668 5666 5664 5660 5657
5555 5566 5563 5579 5582 5581 5577 5570 5570 5569 5569 5574 5602 5597 5623 5648 5659 5675 5689 5697 5705 5705 5707 5710 5712 5710 5710 5709 5705 5702 5696 5695 5691 5689 5686 5682 5680 5677 5671 5667 5664 5661 5659 5654
5553 5555 5566 5573 5564 5566 5566 5565 5555 5555 5556 5588 5597 5580 5643 5658 5671 5683 5692 5696 5702 5705 5705 5709 5707 5705 5707 5705 5706 5702 5699 5697 5694 5691 5687 5684 5681 5675 5673 5667 5662 5657 5655 5651
5540 5533 5563 5580 5578 5578 5575 5573 5556 5555 5557 5583 5571 5595 5643 5663 5689 5697 5689 5691 5696 5702 5704 5707 5711 5710 5708 5707 5707 5702 5700 5698 5693 5690 5688 5684 5680 5676 5674 5669 5663 5659 5655 5650
5550 5557 5567 5575 5575 5579 5564 5559 5585 5552 5487 5537 5571 5606 5634 5648 5669 5681 5687 5688 5693 5696 5699 5703 5706 5708 5708 5704 5704 5704 5699 5697 5694 5691 5686 5681 5677 5674 5672 5666 5662 5659 5655 5650
5542 5547 5557 5562 5564 5565 5573 5590 5555 5547 5534 5538 5576 5586 5632 5648 5675 5692 5688 5688 5695 5690 5694 5698 5701 5703 5701 5701 5700 5699 5698 5695 5693 5689 5685 5680 5676 5672 5667 5661 5659 5656 5653 5646
5537 5533 5542 5545 5556 5577 5571 5566 5568 5576 5557 5566 5569 5601 5635 5659 5665 5682 5696 5689 5685 5686 5688 5689 5690 5692 5694 5694 5693 5693 5691 5689 5686 5684 5681 5677 5672 5668 5663 5661 5658 5653 5647 5643
5528 5519 5522 5540 5564 5569 5573 5566 5566 5562 5567 5561 5568 5616 5648 5651 5662 5673 5681 5682 5682 5682 5680 5678 5678 5680 5681 5683 5682 5681 5680 5679 5677 5674 5671 5670 5669 5666 5662 5658 5656 5652 5647 5642
5531 5509 5522 5526 5531 5540 5559 5579 5584 5582 5566 5571 5573 5626 5645 5645 5653 5656 5666 5671 5675 5671 5667 5666 5665 5668 5670 5670 5670 5668 5667 5666 5664 5662 5661 5658 5655 5652 5651 5649 5646 5643 5639 5635
5519 5515 5516 5540 5564 5554 5551 5570 5576 5568 5560 5594 5587 5635 5633 5644 5643 5645 5653 5660 5664 5662 5657 5655 5657 5659 5660 5661 5661 5659 5656 5653 5650 5648 5645 5642 5640 5638 5636 5634 5631 5628 5624 5620
5501 5511 5526 5545 5549 5554 5558 5564 5567 5568 5588 5566 5620 5604 5627 5634 5634 5637 5644 5645 5645 5649 5649 5650 5653 5651 5651 5651 5650 5647 5644 5641 5638 5635 5632 5630 5628 5625 5622 5619 5615 5610 5606 5602
5491 5507 5511 5519 5534 5538 5544 5549 5561 5565 5580 5575 5606 5604 5633 5627 5624 5624 5632 5632 5638 5644 5646 5648 5648 5646 5645 5643 5641 5636 5632 5628 5625 5622 5618 5614 5610 5606 5603 5598 5596 5593 5589 5585
5476 5491 5494 5514 5524 5517 5515 5548 5556 5579 5598 5595 5593 5637 5616 5612 5615 5621 5621 5625 5636 5644 5642 5639 5638 5636 5632 5632 5632 5628 5622 5616 5613 5609 5605 5601 5598 5594 5591 5588 5584 5579 5575 5572
5475 5467 5486 5510 5513 5510 5546 5550 5564 5568 5593 5593 5602 5625 5623 5619 5627 5626 5626 5627 5628 5628 5628 5628 5626 5621 5619 5616 5613 5609 5605 5602 5599 5595 5592 5590 5586 5582 5578 5574 5570 5567 5563 5560
5471 5474 5458 5475 5510 5522 5532 5542 5570 5570 5600 5598 5590 5617 5615 5608 5600 5607 5627 5631 5635 5629 5623 5622 5615 5611 5607 5605 5601 5597 5592 5588 5586 5584 5582 5578 5575 5569 5566 5561 5557 5556 5552 5547
5468 5469 5467 5464 5486 5512 5567 5607 5574 5560 5551 5594 5604 5622 5618 5596 5581 5641 5626 5614 5612 5611 5607 5603 5597 5594 5593 5589 5587 5584 5580 5579 5575 5570 5566 5564 5561 5558 5557 5554 5550 5547 5544 5539
5459 5460 5460 5474 5479 5508 5576 5568 5568 5527 5588 5634 5615 5628 5623 5596 5627 5661 5624 5608 5605 5597 5590 5583 5581 5581 5579 5575 5573 5570 5567 5566 5562 5558 5552 5546 5545 5540 5538 5533 5531 5529 5525 5525
5496 5486 5488 5490 5508 5529 5558 5560 5565 5631 5619 5626 5630 5638 5618 5622 5631 5604 5605 5591 5588 5582 5572 5570 5568 5565 5562 5558 5557 5556 5552 5548 5537 5542 5533 5530 5525 5525 5522 5521 5513 5509 5507 5506
5493 5521 5515 5490 5535 5550 5581 5595 5599 5601 5604 5606 5613 5614 5617 5612 5614 5591 5584 5576 5573 5567 5561 5556 5553 5547 5543 5540 5539 5535 5533 5531 5527 5516 5512 5510 5510 5509 5509 5508 5501 5499 5494 5487
5498 5503 5500 5504 5552 5541 5546 5572 5587 5587 5595 5594 5595 5601 5605 5613 5606 5579 5578 5570 5560 5547 5542 5541 5540 5531 5522 5519 5521 5527 5520 5514 5511 5505 5501 5501 5499 5497 5495 5494 5490 5486 5480 5477
5470 5476 5495 5507 5520 5532 5539 5547 5559 5568 5568 5571 5566 5578 5584 5584 5575 5569 5561 5553 5545 5537 5529 5525 5526 5520 5512 5506 5506 5502 5500 5503 5501 5494 5494 5491 5489 5485 5484 5478 5476 5476 5471 5467
5418 5432 5480 5519 5450 5455 5528 5517 5533 5543 5559 5560 5557 5559 5560 5564 5562 5558 5547 5544 5534 5518 5511 5511 5502 5504 5498 5494 5491 5483 5486 5489 5489 5482 5479 5475 5476 5473 5471 5468 5465 5465 5460 5457